Time,TemperatureF,DewpointF,PressureIn,WindDirection,WindDirectionDegrees,WindSpeedMPH,WindSpeedGustMPH,Humidity,HourlyPrecipIn,Conditions,Clouds,dailyrainin,SoftwareType,DateUTC
2013-03-23 00:03:00,33.0,30.0,29.83,WNW,294,1.0,21.0,88,0.00,,,0.00,,2013-03-23 04:03:00,
2013-03-23 00:12:00,33.0,30.0,29.83,WNW,294,1.0,21.0,88,0.00,,,0.00,,2013-03-23 04:12:00,
2013-03-23 00:23:00,33.0,30.0,29.83,WNW,294,1.0,21.0,88,0.00,,,0.00,,2013-03-23 04:23:00,
2013-03-23 00:32:00,32.0,30.0,29.84,WNW,289,0.0,21.0,91,0.00,,,0.00,,2013-03-23 04:32:00,
2013-03-23 00:43:00,32.0,30.0,29.84,WNW,289,0.0,21.0,91,0.00,,,0.00,,2013-03-23 04:43:00,
2013-03-23 00:53:00,32.0,30.0,29.84,WNW,289,0.0,21.0,91,0.00,,,0.00,,2013-03-23 04:53:00,
2013-03-23 01:02:00,32.0,30.0,29.83,West,277,0.0,21.0,92,0.00,,,0.00,,2013-03-23 05:02:00,
2013-03-23 01:12:00,32.0,30.0,29.83,West,277,0.0,21.0,92,0.00,,,0.00,,2013-03-23 05:12:00,
2013-03-23 01:22:00,32.0,30.0,29.83,West,277,0.0,21.0,92,0.00,,,0.00,,2013-03-23 05:22:00,
2013-03-23 01:32:00,33.0,30.0,29.83,WNW,296,1.0,21.0,90,0.00,,,0.00,,2013-03-23 05:32:00,
2013-03-23 01:42:00,33.0,30.0,29.83,WNW,296,1.0,21.0,90,0.00,,,0.00,,2013-03-23 05:42:00,
2013-03-23 01:53:00,33.0,30.0,29.83,WNW,296,1.0,21.0,90,0.00,,,0.00,,2013-03-23 05:53:00,
2013-03-23 02:02:00,32.0,29.0,29.84,WNW,288,2.0,21.0,90,0.00,,,0.00,,2013-03-23 06:02:00,
2013-03-23 02:12:00,32.0,29.0,29.84,WNW,288,2.0,21.0,90,0.00,,,0.00,,2013-03-23 06:12:00,
2013-03-23 02:22:00,32.0,29.0,29.84,WNW,288,2.0,21.0,90,0.00,,,0.00,,2013-03-23 06:22:00,
2013-03-23 02:32:00,31.0,29.0,29.83,WNW,294,0.0,21.0,91,0.00,,,0.00,,2013-03-23 06:32:00,
2013-03-23 02:42:00,31.0,29.0,29.83,WNW,294,0.0,21.0,91,0.00,,,0.00,,2013-03-23 06:42:00,
2013-03-23 02:52:00,31.0,29.0,29.83,WNW,294,0.0,21.0,91,0.00,,,0.00,,2013-03-23 06:52:00,
2013-03-23 03:03:00,31.0,29.0,29.83,WNW,284,0.0,21.0,92,0.00,,,0.00,,2013-03-23 07:03:00,
2013-03-23 03:12:00,31.0,29.0,29.83,WNW,284,0.0,21.0,92,0.00,,,0.00,,2013-03-23 07:12:00,
2013-03-23 03:22:00,31.0,29.0,29.83,WNW,284,0.0,21.0,92,0.00,,,0.00,,2013-03-23 07:22:00,
2013-03-23 03:32:00,31.0,29.0,29.83,NW,314,0.0,21.0,92,0.00,,,0.00,,2013-03-23 07:32:00,
2013-03-23 03:42:00,31.0,29.0,29.83,NW,314,0.0,21.0,92,0.00,,,0.00,,2013-03-23 07:42:00,
2013-03-23 03:52:00,31.0,29.0,29.83,NW,314,0.0,21.0,92,0.00,,,0.00,,2013-03-23 07:52:00,
2013-03-23 04:02:00,30.0,28.0,29.82,WSW,240,1.0,21.0,93,0.00,,,0.00,,2013-03-23 08:02:00,
2013-03-23 04:13:00,30.0,28.0,29.82,WSW,240,1.0,21.0,93,0.00,,,0.00,,2013-03-23 08:13:00,
2013-03-23 04:22:00,30.0,28.0,29.82,WSW,240,1.0,21.0,93,0.00,,,0.00,,2013-03-23 08:22:00,
2013-03-23 04:32:00,31.0,29.0,29.82,NW,326,0.0,21.0,93,0.00,,,0.00,,2013-03-23 08:32:00,
2013-03-23 04:42:00,31.0,29.0,29.82,NW,326,0.0,21.0,93,0.00,,,0.00,,2013-03-23 08:42:00,
2013-03-23 04:53:00,31.0,29.0,29.82,NW,326,0.0,21.0,93,0.00,,,0.00,,2013-03-23 08:53:00,
2013-03-23 05:02:00,31.0,29.0,29.82,NW,311,0.0,21.0,94,0.00,,,0.00,,2013-03-23 09:02:00,
2013-03-23 05:12:00,31.0,29.0,29.82,NW,311,0.0,21.0,94,0.00,,,0.00,,2013-03-23 09:12:00,
2013-03-23 05:22:00,31.0,29.0,29.82,NW,311,0.0,21.0,94,0.00,,,0.00,,2013-03-23 09:22:00,
2013-03-23 05:33:00,30.0,29.0,29.81,NW,311,0.0,21.0,95,0.00,,,0.00,,2013-03-23 09:33:00,
2013-03-23 05:42:00,30.0,29.0,29.81,NW,311,0.0,21.0,95,0.00,,,0.00,,2013-03-23 09:42:00,
2013-03-23 05:53:00,30.0,29.0,29.81,NW,311,0.0,21.0,95,0.00,,,0.00,,2013-03-23 09:53:00,
2013-03-23 06:03:00,29.0,28.0,29.81,WNW,302,0.0,21.0,96,0.00,,,0.00,,2013-03-23 10:03:00,
2013-03-23 06:13:00,29.0,28.0,29.81,WNW,302,0.0,21.0,96,0.00,,,0.00,,2013-03-23 10:13:00,
2013-03-23 06:23:00,29.0,28.0,29.81,WNW,302,0.0,21.0,96,0.00,,,0.00,,2013-03-23 10:23:00,
2013-03-23 06:34:00,30.0,29.0,29.82,WSW,237,0.0,21.0,95,0.00,,,0.00,,2013-03-23 10:34:00,
2013-03-23 06:42:00,30.0,29.0,29.82,WSW,237,0.0,21.0,95,0.00,,,0.00,,2013-03-23 10:42:00,
2013-03-23 06:53:00,30.0,29.0,29.82,WSW,237,0.0,21.0,95,0.00,,,0.00,,2013-03-23 10:53:00,
2013-03-23 07:03:00,30.0,28.0,29.82,WNW,287,0.0,21.0,94,0.00,,,0.00,,2013-03-23 11:03:00,
2013-03-23 07:12:00,30.0,28.0,29.82,WNW,287,0.0,21.0,94,0.00,,,0.00,,2013-03-23 11:12:00,
2013-03-23 07:22:00,30.0,28.0,29.82,WNW,287,0.0,21.0,94,0.00,,,0.00,,2013-03-23 11:22:00,
2013-03-23 07:32:00,30.0,28.0,29.82,WSW,248,0.0,21.0,94,0.00,,,0.00,,2013-03-23 11:32:00,
2013-03-23 07:42:00,30.0,28.0,29.82,WSW,248,0.0,21.0,94,0.00,,,0.00,,2013-03-23 11:42:00,
2013-03-23 07:52:00,30.0,28.0,29.82,WSW,248,0.0,21.0,94,0.00,,,0.00,,2013-03-23 11:52:00,
2013-03-23 08:02:00,31.0,29.0,29.82,NW,315,2.0,21.0,93,0.00,,,0.00,,2013-03-23 12:02:00,
2013-03-23 08:13:00,31.0,29.0,29.82,NW,315,2.0,21.0,93,0.00,,,0.00,,2013-03-23 12:13:00,
2013-03-23 08:22:00,31.0,29.0,29.82,NW,315,2.0,21.0,93,0.00,,,0.00,,2013-03-23 12:22:00,
2013-03-23 08:33:00,33.0,30.0,29.82,WNW,284,2.0,21.0,90,0.00,,,0.00,,2013-03-23 12:33:00,
2013-03-23 08:42:00,33.0,30.0,29.82,WNW,284,2.0,21.0,90,0.00,,,0.00,,2013-03-23 12:42:00,
2013-03-23 08:53:00,33.0,30.0,29.82,WNW,284,2.0,21.0,90,0.00,,,0.00,,2013-03-23 12:53:00,
2013-03-23 09:03:00,35.0,31.0,29.81,WNW,290,3.0,21.0,84,0.00,,,0.00,,2013-03-23 13:03:00,
2013-03-23 09:12:00,35.0,31.0,29.81,WNW,290,3.0,21.0,84,0.00,,,0.00,,2013-03-23 13:12:00,
2013-03-23 09:23:00,35.0,31.0,29.81,WNW,290,3.0,21.0,84,0.00,,,0.00,,2013-03-23 13:23:00,
2013-03-23 09:33:00,36.0,31.0,29.80,NW,309,8.0,22.0,81,0.00,,,0.00,,2013-03-23 13:33:00,
2013-03-23 09:43:00,36.0,31.0,29.80,NW,309,8.0,22.0,81,0.00,,,0.00,,2013-03-23 13:43:00,
2013-03-23 09:53:00,36.0,31.0,29.80,NW,309,8.0,22.0,81,0.00,,,0.00,,2013-03-23 13:53:00,
2013-03-23 10:03:00,37.0,31.0,29.80,NW,313,3.0,26.0,78,0.00,,,0.00,,2013-03-23 14:03:00,
2013-03-23 10:12:00,37.0,31.0,29.80,NW,313,3.0,26.0,78,0.00,,,0.00,,2013-03-23 14:12:00,
2013-03-23 10:23:00,37.0,31.0,29.80,NW,313,3.0,26.0,78,0.00,,,0.00,,2013-03-23 14:23:00,
2013-03-23 10:32:00,38.0,30.0,29.79,West,276,8.0,26.0,72,0.00,,,0.00,,2013-03-23 14:32:00,
2013-03-23 10:43:00,38.0,30.0,29.79,West,276,8.0,26.0,72,0.00,,,0.00,,2013-03-23 14:43:00,
2013-03-23 10:53:00,38.0,30.0,29.79,West,276,8.0,26.0,72,0.00,,,0.00,,2013-03-23 14:53:00,
2013-03-23 11:04:00,39.0,30.0,29.80,NW,307,7.0,27.0,70,0.00,,,0.00,,2013-03-23 15:04:00,
2013-03-23 11:12:00,39.0,30.0,29.80,NW,307,7.0,27.0,70,0.00,,,0.00,,2013-03-23 15:12:00,
2013-03-23 11:22:00,39.0,30.0,29.80,NW,307,7.0,27.0,70,0.00,,,0.00,,2013-03-23 15:22:00,
2013-03-23 11:33:00,39.0,29.0,29.78,NW,307,12.0,27.0,68,0.00,,,0.00,,2013-03-23 15:33:00,
2013-03-23 11:43:00,39.0,29.0,29.78,NW,307,12.0,27.0,68,0.00,,,0.00,,2013-03-23 15:43:00,
2013-03-23 11:53:00,39.0,29.0,29.78,NW,307,12.0,27.0,68,0.00,,,0.00,,2013-03-23 15:53:00,
2013-03-23 12:03:00,40.0,29.0,29.78,NW,306,15.0,27.0,65,0.00,,,0.00,,2013-03-23 16:03:00,
2013-03-23 12:13:00,40.0,29.0,29.78,NW,306,15.0,27.0,65,0.00,,,0.00,,2013-03-23 16:13:00,
2013-03-23 12:23:00,40.0,29.0,29.78,NW,306,15.0,27.0,65,0.00,,,0.00,,2013-03-23 16:23:00,
2013-03-23 12:33:00,40.0,29.0,29.78,WNW,298,9.0,27.0,65,0.00,,,0.00,,2013-03-23 16:33:00,
2013-03-23 12:43:00,40.0,29.0,29.78,WNW,298,9.0,27.0,65,0.00,,,0.00,,2013-03-23 16:43:00,
2013-03-23 12:54:00,40.0,29.0,29.78,WNW,298,9.0,27.0,65,0.00,,,0.00,,2013-03-23 16:54:00,
2013-03-23 13:03:00,42.0,30.0,29.78,WNW,303,10.0,27.0,63,0.00,,,0.00,,2013-03-23 17:03:00,
2013-03-23 13:12:00,42.0,30.0,29.78,WNW,303,10.0,27.0,63,0.00,,,0.00,,2013-03-23 17:12:00,
2013-03-23 13:23:00,42.0,30.0,29.78,WNW,303,10.0,27.0,63,0.00,,,0.00,,2013-03-23 17:23:00,
2013-03-23 13:33:00,41.0,27.0,29.77,NW,321,11.0,28.0,58,0.00,,,0.00,,2013-03-23 17:33:00,
2013-03-23 13:42:00,41.0,27.0,29.77,NW,321,11.0,28.0,58,0.00,,,0.00,,2013-03-23 17:42:00,
2013-03-23 13:53:00,41.0,27.0,29.77,NW,321,11.0,28.0,58,0.00,,,0.00,,2013-03-23 17:53:00,
2013-03-23 14:03:00,43.0,27.0,29.76,NW,315,11.0,30.0,52,0.00,,,0.00,,2013-03-23 18:03:00,
2013-03-23 14:12:00,43.0,27.0,29.76,NW,315,11.0,30.0,52,0.00,,,0.00,,2013-03-23 18:12:00,
2013-03-23 14:23:00,43.0,27.0,29.76,NW,315,11.0,30.0,52,0.00,,,0.00,,2013-03-23 18:23:00,
2013-03-23 14:32:00,44.0,26.0,29.75,WNW,293,9.0,30.0,49,0.00,,,0.00,,2013-03-23 18:32:00,
2013-03-23 14:42:00,44.0,26.0,29.75,WNW,293,9.0,30.0,49,0.00,,,0.00,,2013-03-23 18:42:00,
2013-03-23 14:53:00,44.0,26.0,29.75,WNW,293,9.0,30.0,49,0.00,,,0.00,,2013-03-23 18:53:00,
2013-03-23 15:03:00,44.0,25.0,29.75,NW,312,13.0,31.0,47,0.00,,,0.00,,2013-03-23 19:03:00,
2013-03-23 15:13:00,44.0,25.0,29.75,NW,312,13.0,31.0,47,0.00,,,0.00,,2013-03-23 19:13:00,
2013-03-23 15:23:00,44.0,25.0,29.75,NW,312,13.0,31.0,47,0.00,,,0.00,,2013-03-23 19:23:00,
2013-03-23 15:32:00,45.0,25.0,29.74,NW,304,7.0,31.0,46,0.00,,,0.00,,2013-03-23 19:32:00,
2013-03-23 15:42:00,45.0,25.0,29.74,NW,304,7.0,31.0,46,0.00,,,0.00,,2013-03-23 19:42:00,
2013-03-23 15:53:00,45.0,25.0,29.74,NW,304,7.0,31.0,46,0.00,,,0.00,,2013-03-23 19:53:00,
2013-03-23 16:03:00,44.0,25.0,29.74,NW,313,10.0,31.0,46,0.00,,,0.00,,2013-03-23 20:03:00,
2013-03-23 16:13:00,44.0,25.0,29.74,NW,313,10.0,31.0,46,0.00,,,0.00,,2013-03-23 20:13:00,
2013-03-23 16:23:00,44.0,25.0,29.74,NW,313,10.0,31.0,46,0.00,,,0.00,,2013-03-23 20:23:00,
2013-03-23 16:32:00,44.0,25.0,29.74,NNW,327,8.0,31.0,46,0.00,,,0.00,,2013-03-23 20:32:00,
2013-03-23 16:42:00,44.0,25.0,29.74,NNW,327,8.0,31.0,46,0.00,,,0.00,,2013-03-23 20:42:00,
2013-03-23 16:53:00,44.0,25.0,29.74,NNW,327,8.0,31.0,46,0.00,,,0.00,,2013-03-23 20:53:00,
2013-03-23 17:02:00,44.0,25.0,29.74,NW,322,15.0,31.0,46,0.00,,,0.00,,2013-03-23 21:02:00,
2013-03-23 17:12:00,44.0,25.0,29.74,NW,322,15.0,31.0,46,0.00,,,0.00,,2013-03-23 21:12:00,
2013-03-23 17:22:00,44.0,25.0,29.74,NW,322,15.0,31.0,46,0.00,,,0.00,,2013-03-23 21:22:00,
2013-03-23 17:33:00,43.0,25.0,29.75,WNW,293,6.0,31.0,48,0.00,,,0.00,,2013-03-23 21:33:00,
2013-03-23 17:43:00,43.0,25.0,29.75,WNW,293,6.0,31.0,48,0.00,,,0.00,,2013-03-23 21:43:00,
2013-03-23 17:54:00,43.0,25.0,29.75,WNW,293,6.0,31.0,48,0.00,,,0.00,,2013-03-23 21:54:00,
2013-03-23 18:03:00,43.0,25.0,29.76,NW,320,10.0,31.0,49,0.00,,,0.00,,2013-03-23 22:03:00,
2013-03-23 18:13:00,43.0,25.0,29.76,NW,320,10.0,31.0,49,0.00,,,0.00,,2013-03-23 22:13:00,
2013-03-23 18:23:00,43.0,25.0,29.76,NW,320,10.0,31.0,49,0.00,,,0.00,,2013-03-23 22:23:00,
2013-03-23 18:33:00,41.0,25.0,29.78,NW,326,11.0,31.0,52,0.00,,,0.00,,2013-03-23 22:33:00,
2013-03-23 18:42:00,41.0,25.0,29.78,NW,326,11.0,31.0,52,0.00,,,0.00,,2013-03-23 22:42:00,
2013-03-23 18:53:00,41.0,25.0,29.78,NW,326,11.0,31.0,52,0.00,,,0.00,,2013-03-23 22:53:00,
2013-03-23 19:02:00,40.0,25.0,29.79,NW,315,7.0,32.0,54,0.00,,,0.00,,2013-03-23 23:02:00,
2013-03-23 19:13:00,40.0,25.0,29.79,NW,315,7.0,32.0,54,0.00,,,0.00,,2013-03-23 23:13:00,
2013-03-23 19:23:00,40.0,25.0,29.79,NW,315,7.0,32.0,54,0.00,,,0.00,,2013-03-23 23:23:00,
2013-03-23 19:33:00,39.0,25.0,29.81,NNW,336,5.0,32.0,57,0.00,,,0.00,,2013-03-23 23:33:00,
2013-03-23 19:43:00,39.0,25.0,29.81,NNW,336,5.0,32.0,57,0.00,,,0.00,,2013-03-23 23:43:00,
2013-03-23 19:53:00,39.0,25.0,29.81,NNW,336,5.0,32.0,57,0.00,,,0.00,,2013-03-23 23:53:00,
2013-03-23 20:02:00,38.0,25.0,29.82,North,349,5.0,32.0,59,0.00,,,0.00,,2013-03-24 00:02:00,
2013-03-23 20:13:00,38.0,25.0,29.82,North,349,5.0,32.0,59,0.00,,,0.00,,2013-03-24 00:13:00,
2013-03-23 20:23:00,38.0,25.0,29.82,North,349,5.0,32.0,59,0.00,,,0.00,,2013-03-24 00:23:00,
2013-03-23 20:33:00,38.0,26.0,29.84,NW,325,3.0,32.0,61,0.00,,,0.00,,2013-03-24 00:33:00,
2013-03-23 20:42:00,38.0,26.0,29.84,NW,325,3.0,32.0,61,0.00,,,0.00,,2013-03-24 00:42:00,
2013-03-23 20:53:00,38.0,26.0,29.84,NW,325,3.0,32.0,61,0.00,,,0.00,,2013-03-24 00:53:00,
2013-03-23 21:02:00,38.0,26.0,29.84,NW,325,3.0,32.0,61,0.00,,,0.00,,2013-03-24 01:02:00,
2013-03-23 21:12:00,38.0,26.0,29.84,NW,325,3.0,32.0,61,0.00,,,0.00,,2013-03-24 01:12:00,
2013-03-23 21:33:00,37.0,26.0,29.86,NNW,329,0.0,32.0,65,0.00,,,0.00,,2013-03-24 01:33:00,
2013-03-23 21:43:00,37.0,26.0,29.86,NNW,329,0.0,32.0,65,0.00,,,0.00,,2013-03-24 01:43:00,
2013-03-23 21:53:00,37.0,26.0,29.86,NNW,329,0.0,32.0,65,0.00,,,0.00,,2013-03-24 01:53:00,
2013-03-23 22:03:00,37.0,26.0,29.88,NW,325,6.0,32.0,65,0.00,,,0.00,,2013-03-24 02:03:00,
2013-03-23 22:12:00,37.0,26.0,29.88,NW,325,6.0,32.0,65,0.00,,,0.00,,2013-03-24 02:12:00,
2013-03-23 22:22:00,37.0,26.0,29.88,NW,325,6.0,32.0,65,0.00,,,0.00,,2013-03-24 02:22:00,
2013-03-23 22:32:00,37.0,26.0,29.88,NW,325,6.0,32.0,65,0.00,,,0.00,,2013-03-24 02:32:00,
2013-03-23 22:42:00,37.0,26.0,29.88,NW,325,6.0,32.0,65,0.00,,,0.00,,2013-03-24 02:42:00,
2013-03-23 23:33:00,35.0,26.0,29.88,NNW,332,3.0,32.0,69,0.00,,,0.00,,2013-03-24 03:33:00,
2013-03-23 23:43:00,35.0,26.0,29.88,NNW,332,3.0,32.0,69,0.00,,,0.00,,2013-03-24 03:43:00,
2013-03-23 23:53:00,35.0,26.0,29.88,NNW,332,3.0,32.0,69,0.00,,,0.00,,2013-03-24 03:53:00,